BIROS

Last updated on Sun Dec 07 2025 00:02:31 GMT+0000 (Coordinated Universal Time)

1 41604U 16040F 25340.61646874 .00214242 00000+0 80859-3 0 9999 2 41604 97.0681 11.8159 0003036 162.4824 197.6553 15.87194787527751
UTC large
Height (km)
Speed (km/s)
/
Latitude / Longitude
Inclination (degrees)
Orbital Period (minutes)
Azimuth
Elevation
Range (km)
Doppler Factor

Next 0 passes for location: London (51.5072 / 0.1276)

Sorry there are no passes over London.